Regional Weather Roundup
Issued by NWS Sioux Falls, SD

Home | Current Version | Previous Version | Text Only | Print | Product List | Glossary On
Versions: 1 2 3 4 5 6 7 8 9 10 11 12 13 14 15 16 17 18 19 20 21 22 23 24 25 26 27 28 29 30 31 32 33 34 35 36 37 38 39 40 41 42 43 44 45 46 47 48 49 50
000
ASUS43 KFSD 280610
RWRFSD

WEATHER ROUNDUP FOR SE SOUTH DAKOTA/SW MINNESOTA/NW IOWA
NATIONAL WEATHER SERVICE SIOUX FALLS SD
100 AM CDT MON MAY 28 2018

NOTE: "FAIR" INDICATES FEW OR NO CLOUDS BELOW 12,000 FEET WITH NO
SIGNIFICANT WEATHER AND OR OBSTRUCTIONS TO VISIBILITY.


SDZ038>040-050-052>070-280700-
SOUTHEAST SOUTH DAKOTA

CITY           SKY/WX    TMP DP  RH WIND       PRES   REMARKS
BROOKINGS      CLOUDY    77  58  51 S8        29.85R
CHAMBERLAIN    CLOUDY    76  68  77 NW16G26   29.91R
6HR MIN TEMP:  76; 6HR MAX TEMP:  94;

HURON          CLOUDY    71  65  81 W8        29.79S
6HR MIN TEMP:  71; 6HR MAX TEMP:  94;

MADISON        FAIR      77  57  50 SW10      29.87R
MITCHELL       CLOUDY    78  59  51 SW8       29.83R
6HR MIN TEMP:  73; 6HR MAX TEMP:  93;

SIOUX FALLS    CLOUDY    83  57  41 SW14G25   29.84S
6HR MIN TEMP:  79; 6HR MAX TEMP:  91;

WINNER         FAIR      73  55  53 W12G18    29.94R
YANKTON        MOCLDY    80  60  50 SW9       29.86R
$$

MNZ071-072-080-081-089-090-097-098-280700-
SOUTHWEST MINNESOTA

CITY           SKY/WX    TMP DP  RH WIND       PRES   REMARKS
FAIRMONT       CLOUDY    79  60  52 S6        29.89R
JACKSON        MOCLDY    77  59  53 S7        29.89R
LUVERNE        CLOUDY    77  52  41 SW7       29.87R
MARSHALL       MOCLDY    82  57  42 SW14      29.82S
6HR MIN TEMP:  77; 6HR MAX TEMP:  95;

MONTEVIDEO     MOCLDY    79  55  44 W5        29.80S
PIPESTONE      CLOUDY    75  57  53 W3        29.88R
REDWOOD FALLS  MOCLDY    78  61  55 S9        29.81R
WINDOM         CLOUDY    79  54  41 S6        29.86R
WORTHINGTON    CLOUDY    82  57  42 SW14      29.88S
$$

IAZ001>003-012>014-020>022-031-032-NEZ013-014-SDZ071-280700-
NORTHWEST IOWA

CITY           SKY/WX    TMP DP  RH WIND       PRES   REMARKS
CHEROKEE       MOCLDY    72  64  76 CALM      29.87S
DENISON        CLOUDY    73  63  68 CALM      29.91R
ESTHERVILLE    CLOUDY    73  60  63 S5        29.88R
ORANGE CITY    CLOUDY    81  55  41 SW8       29.87S
SHELDON        CLOUDY    79  55  44 SW7       29.85S
SIOUX CITY     CLOUDY    79  59  50 S6        29.85S
6HR MIN TEMP:  79; 6HR MAX TEMP:  96;

SPENCER        CLOUDY    79  59  50 S8        29.88R
6HR MIN TEMP:  77; 6HR MAX TEMP:  97;

STORM LAKE     CLOUDY    75  57  53 S6        29.89F
$$

ABBREVIATIONS USED IN REMARKS
   TC - TEMPERATURE IN CELSIUS
  WCI - WIND CHILL INDEX
   HX - HEAT INDEX
  VSB - VISIBILITY




USA.gov is the U.S. government's official web portal to all federal, state and local government web resources and services.